User: anonymous   Login
Location: Cincinnati Observatory Center
(39.1389°N, 84.4225°W)
Time: 02:57:18
(UTC-04:00)
Language:

COSMOS 2428 - Orbit

View from above orbital plane
View from above orbital plane
View from above satellite
View from above satellite

Ground track
Ground track

The orbit data is extracted from the following two-line orbital elements,

1 31792U 07029A   15086.17895257  .00000096  00000-0  77298-4 0  9996
2 31792 070.9849 316.8644 0005329 068.3050 042.2100 14.12542071399270
Epoch (UTC): 27 March 2015 04:17:41
Eccentricity: 0.0005329
inclination: 70.9849°
perigee height: 847 km
apogee height: 854 km
right ascension of ascending node: 316.8644°
argument of perigee: 68.3050°
revolutions per day: 14.12542071
mean anomaly at epoch: 42.2100°
orbit number at epoch: 39927

The dashed part of the orbit path shows where the satellite is in the earth's shadow,  

DLR